TimeEST,TemperatureF,Dew PointF,Humidity,Sea Level PressureIn,VisibilityMPH,Wind Direction,Wind SpeedMPH,Gust SpeedMPH,PrecipitationIn,Events,Conditions,WindDirDegrees,DateUTC
12:15 AM,39.6,24.3,54,30.33,10.0,WNW,3.5,-,N/A,,Clear,290,2012-12-31 05:15:00
12:35 AM,38.8,24.3,56,30.33,10.0,WNW,6.9,-,N/A,,Clear,290,2012-12-31 05:35:00
12:55 AM,38.5,24.4,57,30.33,10.0,WNW,6.9,-,N/A,,Clear,300,2012-12-31 05:55:00
1:15 AM,37.9,24.1,57,30.33,10.0,NW,6.9,-,N/A,,Clear,310,2012-12-31 06:15:00
1:35 AM,37.2,22.5,55,30.33,10.0,NW,5.8,-,N/A,,Clear,310,2012-12-31 06:35:00
1:55 AM,36.3,23.0,59,30.34,10.0,Calm,Calm,-,N/A,,Clear,0,2012-12-31 06:55:00
2:15 AM,35.8,24.1,62,30.35,10.0,West,4.6,-,N/A,,Clear,280,2012-12-31 07:15:00
2:55 AM,35.2,23.7,63,30.35,10.0,WNW,3.5,-,N/A,,Clear,300,2012-12-31 07:55:00
3:15 AM,34.9,24.4,66,30.33,10.0,WNW,3.5,-,N/A,,Clear,300,2012-12-31 08:15:00
3:35 AM,34.3,24.4,67,30.33,10.0,NW,3.5,-,N/A,,Clear,310,2012-12-31 08:35:00
3:55 AM,34.2,24.3,67,30.33,10.0,Calm,Calm,-,N/A,,Clear,0,2012-12-31 08:55:00
4:15 AM,33.6,25.2,71,30.32,10.0,Calm,Calm,-,N/A,,Clear,0,2012-12-31 09:15:00
4:35 AM,33.4,26.1,74,30.32,10.0,Calm,Calm,-,N/A,,Clear,0,2012-12-31 09:35:00
4:55 AM,33.4,26.2,75,30.32,10.0,WNW,3.5,-,N/A,,Clear,290,2012-12-31 09:55:00
5:15 AM,33.3,26.6,77,30.33,10.0,West,3.5,-,N/A,,Clear,280,2012-12-31 10:15:00
5:35 AM,33.6,26.6,75,30.33,10.0,Calm,Calm,-,N/A,,Clear,0,2012-12-31 10:35:00
5:55 AM,33.6,27.3,78,30.33,10.0,Calm,Calm,-,N/A,,Clear,0,2012-12-31 10:55:00
6:15 AM,33.3,27.9,81,30.33,10.0,WSW,4.6,-,N/A,,Clear,250,2012-12-31 11:15:00
6:35 AM,32.9,28.2,83,30.33,10.0,West,4.6,-,N/A,,Clear,260,2012-12-31 11:35:00
6:55 AM,33.6,27.9,79,30.33,10.0,West,4.6,-,N/A,,Clear,260,2012-12-31 11:55:00
7:15 AM,34.0,27.7,78,30.33,10.0,West,4.6,-,N/A,,Clear,260,2012-12-31 12:15:00
7:55 AM,34.7,28.6,78,30.33,10.0,WSW,4.6,-,N/A,,Clear,250,2012-12-31 12:55:00
8:15 AM,35.6,29.1,77,30.33,10.0,WSW,4.6,-,N/A,,Clear,250,2012-12-31 13:15:00
8:35 AM,36.7,28.9,74,30.33,10.0,West,5.8,-,N/A,,Clear,260,2012-12-31 13:35:00
8:55 AM,37.4,29.1,72,30.34,10.0,West,5.8,-,N/A,,Clear,260,2012-12-31 13:55:00
9:15 AM,37.6,28.2,69,30.35,10.0,West,6.9,-,N/A,,Clear,270,2012-12-31 14:15:00
9:35 AM,37.2,27.3,67,30.36,10.0,West,6.9,-,N/A,,Clear,260,2012-12-31 14:35:00
9:55 AM,37.2,28.0,69,30.36,10.0,West,4.6,-,N/A,,Clear,260,2012-12-31 14:55:00
10:15 AM,37.6,28.9,71,30.36,10.0,West,4.6,-,N/A,,Clear,260,2012-12-31 15:15:00
10:35 AM,38.3,27.1,64,30.35,10.0,WSW,5.8,-,N/A,,Clear,240,2012-12-31 15:35:00
10:55 AM,38.8,25.9,60,30.33,10.0,West,6.9,-,N/A,,Clear,260,2012-12-31 15:55:00
11:15 AM,39.6,25.3,57,30.32,10.0,WSW,8.1,-,N/A,,Clear,250,2012-12-31 16:15:00
11:35 AM,40.3,25.5,56,30.30,10.0,SW,6.9,-,N/A,,Clear,230,2012-12-31 16:35:00
11:55 AM,41.5,24.6,51,30.29,10.0,WSW,6.9,-,N/A,,Clear,240,2012-12-31 16:55:00
12:15 PM,42.4,22.5,45,30.28,10.0,WSW,8.1,-,N/A,,Clear,240,2012-12-31 17:15:00
12:35 PM,43.3,21.9,43,30.27,10.0,West,9.2,-,N/A,,Clear,260,2012-12-31 17:35:00
12:55 PM,43.5,22.3,43,30.26,10.0,SW,9.2,-,N/A,,Clear,230,2012-12-31 17:55:00
1:15 PM,43.3,24.1,47,30.24,10.0,WSW,8.1,-,N/A,,Clear,240,2012-12-31 18:15:00
1:35 PM,44.2,23.2,43,30.22,10.0,WSW,6.9,16.1,N/A,,Clear,240,2012-12-31 18:35:00
1:55 PM,44.4,23.5,44,30.22,10.0,SW,5.8,-,N/A,,Clear,220,2012-12-31 18:55:00
2:15 PM,44.6,25.3,47,30.20,10.0,WSW,8.1,-,N/A,,Clear,240,2012-12-31 19:15:00
2:35 PM,44.4,23.5,44,30.20,10.0,SW,5.8,-,N/A,,Clear,230,2012-12-31 19:35:00
2:55 PM,44.2,25.0,47,30.20,10.0,WSW,8.1,-,N/A,,Clear,240,2012-12-31 19:55:00
3:15 PM,44.6,25.3,47,30.19,10.0,SW,6.9,-,N/A,,Clear,230,2012-12-31 20:15:00
3:35 PM,44.4,26.1,49,30.20,10.0,WSW,5.8,-,N/A,,Clear,240,2012-12-31 20:35:00
3:55 PM,44.6,25.5,47,30.19,10.0,WSW,9.2,-,N/A,,Clear,240,2012-12-31 20:55:00
4:15 PM,44.4,25.2,47,30.19,10.0,SW,8.1,-,N/A,,Clear,230,2012-12-31 21:15:00
4:35 PM,44.2,26.8,50,30.19,10.0,SW,5.8,-,N/A,,Clear,220,2012-12-31 21:35:00
4:55 PM,43.9,28.8,55,30.19,10.0,SW,6.9,-,N/A,,Clear,230,2012-12-31 21:55:00
5:35 PM,43.5,29.8,59,30.18,10.0,SW,5.8,-,N/A,,Clear,220,2012-12-31 22:35:00
5:55 PM,43.3,30.7,61,30.18,10.0,SW,5.8,-,N/A,,Clear,230,2012-12-31 22:55:00
6:15 PM,43.3,31.3,62,30.17,10.0,SW,4.6,-,N/A,,Clear,220,2012-12-31 23:15:00
6:35 PM,43.3,31.5,63,30.17,10.0,SSW,4.6,-,N/A,,Clear,210,2012-12-31 23:35:00
6:55 PM,43.3,31.8,64,30.17,10.0,SW,5.8,-,N/A,,Clear,220,2012-12-31 23:55:00
7:15 PM,43.7,31.5,62,30.19,10.0,WSW,4.6,-,N/A,,Clear,240,2013-01-01 00:15:00
7:35 PM,43.7,32.0,63,30.18,10.0,SW,5.8,-,N/A,,Clear,220,2013-01-01 00:35:00
7:55 PM,43.5,32.4,65,30.16,10.0,SSW,5.8,-,N/A,,Mostly Cloudy,210,2013-01-01 00:55:00
8:15 PM,43.7,32.5,65,30.15,10.0,SW,6.9,-,N/A,,Overcast,220,2013-01-01 01:15:00
8:35 PM,43.9,32.5,64,30.14,10.0,SW,5.8,-,N/A,,Overcast,220,2013-01-01 01:35:00
8:55 PM,44.4,32.9,64,30.14,10.0,SW,8.1,-,N/A,,Overcast,230,2013-01-01 01:55:00
9:15 PM,44.4,33.4,65,30.14,10.0,SW,8.1,-,N/A,,Overcast,220,2013-01-01 02:15:00
9:35 PM,44.6,33.1,64,30.12,10.0,SW,6.9,-,N/A,,Overcast,220,2013-01-01 02:35:00
9:55 PM,44.8,32.7,63,30.12,10.0,SW,6.9,-,N/A,,Overcast,220,2013-01-01 02:55:00
10:15 PM,45.0,33.1,63,30.12,10.0,SW,5.8,-,N/A,,Overcast,230,2013-01-01 03:15:00
10:35 PM,45.1,33.6,64,30.12,10.0,SW,6.9,-,N/A,,Overcast,230,2013-01-01 03:35:00
10:55 PM,45.7,34.0,64,30.12,10.0,SW,8.1,-,N/A,,Scattered Clouds,230,2013-01-01 03:55:00
11:15 PM,46.4,34.5,63,30.12,10.0,WSW,8.1,-,N/A,,Clear,240,2013-01-01 04:15:00
11:35 PM,46.2,34.9,65,30.11,10.0,WSW,6.9,-,N/A,,Clear,240,2013-01-01 04:35:00
11:55 PM,46.4,35.6,66,30.11,10.0,SW,8.1,-,N/A,,Clear,230,2013-01-01 04:55:00